NIMIQ 2

Last updated on Thu Nov 21 2024 00:02:40 GMT+0000 (Coordinated Universal Time)

1 27632U 02062A 24325.27360181 -.00000068 00000+0 00000+0 0 9997 2 27632 8.1006 62.7062 0007143 181.5846 164.8381 1.00272404 38426
UTC large
Height (km)
Speed (km/s)
/
Latitude / Longitude
Inclination (degrees)
Orbital Period (minutes)
Azimuth
Elevation
Range (km)
Doppler Factor

Next 0 passes for location: London (51.5072 / 0.1276)

Sorry there are no passes over London.